User: anonymous   Login
Location: Lafig�re
(44.4503°N, 4.0357°E)
Time: 00:01:21
(UTC+00:00)
Language:

Explorer 11/Cluster Stage 4 - Orbit

View from above orbital plane
View from above orbital plane
View from above satellite
View from above satellite

Ground track
Ground track

The orbit data is extracted from the following two-line orbital elements,

1 00107U 61013A   21138.24526698  .00000421  00000-0  34249-4 0  9999
2 00107  28.7910  90.3339 0545706 281.8672  72.1231 14.09191571 13496
Epoch (UTC): 18 May 2021 05:53:11
Eccentricity: 0.0545706
inclination: 28.7910°
perigee height: 467 km
apogee height: 1257 km
right ascension of ascending node: 90.3339°
argument of perigee: 281.8672°
revolutions per day: 14.09191571
mean anomaly at epoch: 72.1231°
orbit number at epoch: 1349

The dashed part of the orbit path shows where the satellite is in the earth's shadow,  

DLR